| time (UTC) | temp F | wind direction | speed MPH | gust MPH | rain 1hr in | rain 24hr in | rain mn in | humidity % | barometer mb |
| 20260502195547 | 55 | 128 | 1.0 | 2.0 | 0.00 | 0.00 | 0.00 | 53 | 1019.5 |
| 20260502192547 | 56 | 130 | 1.0 | 1.0 | 0.00 | 0.00 | 0.00 | 50 | 1019.5 |
| 20260502185547 | 58 | 131 | 0.0 | 2.0 | 0.00 | 0.00 | 0.00 | 48 | 1019.4 |
| 20260502182547 | 63 | 128 | 0.0 | 0.0 | 0.00 | 0.00 | 0.00 | 41 | 1019.2 |
| 20260502162548 | 75 | 102 | 1.0 | 3.0 | 0.00 | 0.00 | 0.00 | 25 | 1019.4 |
| 20260502122549 | 74 | 170 | 2.0 | 6.0 | 0.00 | 0.00 | 0.00 | 28 | 1022.2 |
| 20260502115549 | 73 | 283 | 1.0 | 5.0 | 0.00 | 0.00 | 0.00 | 30 | 1022.4 |
| 20260502112549 | 72 | 204 | 1.0 | 4.0 | 0.00 | 0.00 | 0.00 | 34 | 1023.0 |
| 20260502102549 | 72 | 110 | 2.0 | 4.0 | 0.00 | 0.00 | 0.00 | 37 | 1023.6 |
| 20260502045550 | 37 | 10 | 0.0 | 0.0 | 0.00 | 0.00 | 0.00 | 85 | 1025.9 |
| 20260502042550 | 35 | 10 | 0.0 | 0.0 | 0.00 | 0.00 | 0.00 | 84 | 1025.9 |
| 20260502035550 | 35 | 10 | 0.0 | 0.0 | 0.00 | 0.00 | 0.00 | 83 | 1025.7 |
| 20260502032550 | 36 | 10 | 0.0 | 0.0 | 0.00 | 0.00 | 0.00 | 83 | 1025.6 |
| 20260502025550 | 36 | 10 | 0.0 | 0.0 | 0.00 | 0.00 | 0.00 | 82 | 1025.7 |
| 20260502022550 | 37 | 10 | 0.0 | 0.0 | 0.00 | 0.00 | 0.00 | 82 | 1025.9 |
| 20260502015550 | 37 | 10 | 0.0 | 0.0 | 0.00 | 0.00 | 0.00 | 81 | 1026.0 |
| 20260502012551 | 38 | 10 | 0.0 | 0.0 | 0.00 | 0.00 | 0.00 | 80 | 1026.2 |
| 20260502005551 | 39 | 9 | 0.0 | 0.0 | 0.00 | 0.00 | 0.00 | 79 | 1026.4 |
| 20260502002741 | 40 | 10 | 0.0 | 0.0 | 0.00 | 0.00 | 0.00 | 78 | 1026.6 |
| 20260502002551 | 40 | 10 | 0.0 | 0.0 | 0.00 | 0.00 | 0.00 | 78 | 1026.6 |
| 20260501235551 | 40 | 10 | 0.0 | 0.0 | 0.00 | 0.00 | 0.00 | 78 | 1026.5 |
| 20260501232551 | 41 | 10 | 0.0 | 0.0 | 0.00 | 0.00 | 0.00 | 76 | 1026.7 |
| 20260501225552 | 42 | 10 | 0.0 | 0.0 | 0.00 | 0.00 | 0.00 | 75 | 1026.8 |
| 20260501222551 | 42 | 10 | 0.0 | 0.0 | 0.00 | 0.00 | 0.00 | 74 | 1026.8 |
| 20260501215551 | 44 | 10 | 0.0 | 0.0 | 0.00 | 0.00 | 0.00 | 72 | 1026.9 |
| 20260501212551 | 45 | 10 | 0.0 | 0.0 | 0.00 | 0.00 | 0.00 | 70 | 1026.9 |
| 20260501205551 | 46 | 10 | 0.0 | 0.0 | 0.00 | 0.00 | 0.00 | 68 | 1026.9 |
| 20260501202551 | 47 | 10 | 0.0 | 0.0 | 0.00 | 0.00 | 0.00 | 67 | 1026.9 |